,,PA_Meas_PMT16A,,PR_Meas_QMR101_102,,RH_Meas_QMH101,,SR_Meas_QMS101,,TA_Meas_QMH101,,GenWind,,GenWind,
time,status,PA,status,PR,status,RH,status,SR,status,TA,status,DirAvg,status,SpdAvg,
2015-01-03, 00:00:04,VALID,919.913,VALID,0,VALID,94.5227,VALID,0,VALID,20.2879,VALID,164,VALID,0.504687,
2015-01-03, 00:01:04,VALID,919.911,VALID,0,VALID,94.5609,VALID,0,VALID,20.2684,VALID,164,VALID,0.500781,
2015-01-03, 00:02:04,VALID,919.882,VALID,0,VALID,94.6447,VALID,0,VALID,20.2684,VALID,164,VALID,0.296484,
2015-01-03, 00:03:04,VALID,919.893,VALID,0,VALID,94.7438,VALID,0,VALID,20.2879,VALID,164,VALID,0.403906,
2015-01-03, 00:04:04,VALID,919.886,VALID,0,VALID,94.7743,VALID,0,VALID,20.2879,VALID,164,VALID,0.414844,
2015-01-03, 00:05:04,VALID,919.853,VALID,0,VALID,94.6752,VALID,0,VALID,20.2879,VALID,164,VALID,0.337891,
2015-01-03, 00:06:04,VALID,919.883,VALID,0,VALID,94.4922,VALID,0,VALID,20.3074,VALID,164,VALID,0.65,
2015-01-03, 00:07:04,VALID,919.834,VALID,0,VALID,94.3931,VALID,0,VALID,20.2879,VALID,164,VALID,0,
2015-01-03, 00:08:04,VALID,919.849,VALID,0,VALID,94.416,VALID,0,VALID,20.2684,VALID,164,VALID,0,
2015-01-03, 00:09:04,VALID,919.837,VALID,0,VALID,94.355,VALID,0,VALID,20.2684,VALID,158,VALID,0,
2015-01-03, 00:10:04,VALID,919.801,VALID,0,VALID,94.1416,VALID,0,VALID,20.2293,VALID,158,VALID,0,
2015-01-03, 00:11:04,VALID,919.799,VALID,0,VALID,94.2483,VALID,0,VALID,20.2098,VALID,158,VALID,0,
2015-01-03, 00:12:04,VALID,919.78,VALID,0,VALID,94.4008,VALID,0,VALID,20.1903,VALID,155,VALID,0,
2015-01-03, 00:13:04,VALID,919.765,VALID,0,VALID,94.5837,VALID,0,VALID,20.1903,VALID,155,VALID,0,
2015-01-03, 00:14:04,VALID,919.745,VALID,0,VALID,94.6905,VALID,0,VALID,20.2098,VALID,155,VALID,0,
2015-01-03, 00:15:04,VALID,919.714,VALID,0,VALID,94.7286,VALID,0,VALID,20.2309,VALID,155,VALID,0,
2015-01-03, 00:16:04,VALID,919.712,VALID,0,VALID,94.6523,VALID,0,VALID,20.1903,VALID,155,VALID,0,
2015-01-03, 00:17:04,VALID,919.702,VALID,0,VALID,94.599,VALID,0,VALID,20.1903,VALID,152,VALID,0,
2015-01-03, 00:18:04,VALID,919.693,VALID,0,VALID,94.4922,VALID,0,VALID,20.1708,VALID,152,VALID,0,
2015-01-03, 00:19:04,VALID,919.687,VALID,0,VALID,94.5075,VALID,0,VALID,20.1903,VALID,152,VALID,0,
2015-01-03, 00:20:04,VALID,919.704,VALID,0,VALID,94.599,VALID,0,VALID,20.1903,VALID,152,VALID,0,
2015-01-03, 00:21:04,VALID,919.667,VALID,0,VALID,94.6447,VALID,0,VALID,20.1708,VALID,152,VALID,0,
2015-01-03, 00:22:04,VALID,919.686,VALID,0,VALID,94.6981,VALID,0.107441,VALID,20.1919,VALID,152,VALID,0,
2015-01-03, 00:23:04,VALID,919.653,VALID,0,VALID,94.7209,VALID,0,VALID,20.1724,VALID,152,VALID,0,
2015-01-03, 00:24:04,VALID,919.657,VALID,0,VALID,94.8429,VALID,0,VALID,20.1513,VALID,152,VALID,0,
2015-01-03, 00:25:04,VALID,919.638,VALID,0,VALID,94.8658,VALID,0,VALID,20.1318,VALID,152,VALID,0,
2015-01-03, 00:26:04,VALID,919.648,VALID,0,VALID,94.9573,VALID,0,VALID,20.1318,VALID,148,VALID,0,
2015-01-03, 00:27:04,VALID,919.618,VALID,0,VALID,95.0564,VALID,0,VALID,20.1123,VALID,139,VALID,0,
2015-01-03, 00:28:04,VALID,919.636,VALID,0,VALID,95.2012,VALID,0,VALID,20.1123,VALID,139,VALID,0,
2015-01-03, 00:29:04,VALID,919.606,VALID,0,VALID,95.2622,VALID,0,VALID,20.1123,VALID,139,VALID,0,
2015-01-03, 00:30:04,VALID,919.612,VALID,0,VALID,95.3003,VALID,0,VALID,20.0733,VALID,150,VALID,0,
2015-01-03, 00:31:04,VALID,919.603,VALID,0,VALID,95.3384,VALID,0,VALID,20.0733,VALID,156,VALID,0.462891,
2015-01-03, 00:32:04,VALID,919.57,VALID,0,VALID,95.3918,VALID,0,VALID,20.0538,VALID,163,VALID,0.944531,
2015-01-03, 00:33:04,VALID,919.542,VALID,0,VALID,95.4985,VALID,0,VALID,20.0343,VALID,159,VALID,0.892578,
2015-01-03, 00:34:04,VALID,919.548,VALID,0,VALID,95.6357,VALID,0,VALID,20.0343,VALID,156,VALID,0.748828,
2015-01-03, 00:35:04,VALID,919.532,VALID,0,VALID,95.7196,VALID,0,VALID,19.9953,VALID,158,VALID,0.580859,
2015-01-03, 00:36:04,VALID,919.525,VALID,0,VALID,95.834,VALID,0,VALID,19.9953,VALID,158,VALID,0.745313,
2015-01-03, 00:37:04,VALID,919.491,VALID,0,VALID,95.9254,VALID,0,VALID,19.9953,VALID,159,VALID,0.573047,
2015-01-03, 00:38:04,VALID,919.468,VALID,0,VALID,96.0093,VALID,0,VALID,19.9758,VALID,159,VALID,0,
2015-01-03, 00:39:04,VALID,919.458,VALID,0,VALID,96.0703,VALID,0,VALID,19.9758,VALID,159,VALID,0,
2015-01-03, 00:40:04,VALID,919.434,VALID,0,VALID,96.1084,VALID,0,VALID,19.9563,VALID,159,VALID,0,
2015-01-03, 00:41:04,VALID,919.44,VALID,0,VALID,96.1541,VALID,0,VALID,19.9368,VALID,150,VALID,0,
2015-01-03, 00:42:04,VALID,919.427,VALID,0,VALID,96.1999,VALID,0,VALID,19.9563,VALID,165,VALID,1.28984,
2015-01-03, 00:43:04,VALID,919.429,VALID,0,VALID,96.1846,VALID,0,VALID,19.9563,VALID,151,VALID,0.0121094,
2015-01-03, 00:44:04,VALID,919.411,VALID,0,VALID,96.1846,VALID,0,VALID,19.9758,VALID,153,VALID,0,
2015-01-03, 00:45:04,VALID,919.418,VALID,0,VALID,96.1618,VALID,0,VALID,20.0148,VALID,175,VALID,0.666797,
2015-01-03, 00:46:04,VALID,919.423,VALID,0,VALID,96.0779,VALID,0,VALID,19.9938,VALID,151,VALID,0.666797,
2015-01-03, 00:47:04,VALID,919.407,VALID,0,VALID,96.0017,VALID,0,VALID,20.0343,VALID,152,VALID,0.809375,
2015-01-03, 00:48:04,VALID,919.383,VALID,0,VALID,95.9102,VALID,0,VALID,20.0343,VALID,149,VALID,0.985156,
2015-01-03, 00:49:04,VALID,919.353,VALID,0,VALID,95.8187,VALID,0,VALID,20.0538,VALID,159,VALID,0,
2015-01-03, 00:50:04,VALID,919.353,VALID,0,VALID,95.7196,VALID,0,VALID,20.0538,VALID,165,VALID,0,
2015-01-03, 00:51:04,VALID,919.325,VALID,0,VALID,95.6434,VALID,0,VALID,20.0343,VALID,175,VALID,0,
2015-01-03, 00:52:04,VALID,919.282,VALID,0,VALID,95.6281,VALID,0,VALID,20.0538,VALID,169,VALID,0.096875,
2015-01-03, 00:53:04,VALID,919.29,VALID,0,VALID,95.6205,VALID,0,VALID,20.0733,VALID,170,VALID,0,
2015-01-03, 00:54:04,VALID,919.291,VALID,0,VALID,95.6053,VALID,0,VALID,20.0718,VALID,154,VALID,0,
2015-01-03, 00:55:04,VALID,919.316,VALID,0,VALID,95.5519,VALID,0,VALID,20.1123,VALID,179,VALID,0,
2015-01-03, 00:56:04,VALID,919.307,VALID,0,VALID,95.4909,VALID,0,VALID,20.1123,VALID,175,VALID,0,
2015-01-03, 00:57:04,VALID,919.312,VALID,0,VALID,95.468,VALID,0,VALID,20.1123,VALID,162,VALID,0,
2015-01-03, 00:58:04,VALID,919.306,VALID,0,VALID,95.4375,VALID,0,VALID,20.1123,VALID,172,VALID,0,
2015-01-03, 00:59:04,VALID,919.319,VALID,0,VALID,95.4223,VALID,0,VALID,20.1139,VALID,175,VALID,0,
2015-01-03, 01:00:04,VALID,919.307,VALID,0,VALID,95.4299,VALID,0,VALID,20.0928,VALID,174,VALID,0,
2015-01-03, 01:01:04,VALID,919.334,VALID,0,VALID,95.4299,VALID,0,VALID,20.0928,VALID,144,VALID,0,
2015-01-03, 01:02:04,VALID,919.321,VALID,0,VALID,95.4147,VALID,0,VALID,20.0928,VALID,145,VALID,0,
2015-01-03, 01:03:04,VALID,919.275,VALID,0,VALID,95.3994,VALID,0,VALID,20.0928,VALID,146,VALID,0,
2015-01-03, 01:04:04,VALID,919.257,VALID,0,VALID,95.4071,VALID,0,VALID,20.0928,VALID,146,VALID,0,
2015-01-03, 01:05:04,VALID,919.26,VALID,0,VALID,95.4071,VALID,0,VALID,20.0928,VALID,146,VALID,0,
2015-01-03, 01:06:04,VALID,919.243,VALID,0,VALID,95.4223,VALID,0,VALID,20.0944,VALID,146,VALID,0,
2015-01-03, 01:07:04,VALID,919.233,VALID,0,VALID,95.4452,VALID,0,VALID,20.0538,VALID,146,VALID,0,
2015-01-03, 01:08:04,VALID,919.19,VALID,0,VALID,95.4375,VALID,0,VALID,20.0538,VALID,182,VALID,0.784375,
2015-01-03, 01:09:04,VALID,919.225,VALID,0,VALID,95.4528,VALID,0,VALID,20.0538,VALID,172,VALID,0.707031,
2015-01-03, 01:10:04,VALID,919.206,VALID,0,VALID,95.4757,VALID,0,VALID,20.0733,VALID,171,VALID,0.745703,
2015-01-03, 01:11:04,VALID,919.197,VALID,0,VALID,95.4528,VALID,0.107441,VALID,20.0733,VALID,169,VALID,0.866016,
2015-01-03, 01:12:04,VALID,919.185,VALID,0,VALID,95.468,VALID,0.214882,VALID,20.0718,VALID,168,VALID,0.497266,
2015-01-03, 01:13:04,VALID,919.17,VALID,0,VALID,95.4452,VALID,0.107441,VALID,20.0928,VALID,161,VALID,1.25117,
2015-01-03, 01:14:04,VALID,919.2,VALID,0,VALID,95.4223,VALID,0,VALID,20.0913,VALID,163,VALID,0.514844,
2015-01-03, 01:15:04,VALID,919.192,VALID,0,VALID,95.3613,VALID,0.107441,VALID,20.1123,VALID,163,VALID,0.297656,
2015-01-03, 01:16:04,VALID,919.165,VALID,0,VALID,95.3156,VALID,0.107441,VALID,20.0913,VALID,163,VALID,0.566016,
2015-01-03, 01:17:04,VALID,919.159,VALID,0,VALID,95.2546,VALID,0.107441,VALID,20.1318,VALID,163,VALID,0,
2015-01-03, 01:18:04,VALID,919.16,VALID,0,VALID,95.2241,VALID,0.214882,VALID,20.0913,VALID,163,VALID,0,
2015-01-03, 01:19:04,VALID,919.128,VALID,0,VALID,95.1936,VALID,0.107441,VALID,20.0928,VALID,163,VALID,0,
2015-01-03, 01:20:04,VALID,919.089,VALID,0,VALID,95.1631,VALID,0,VALID,20.0928,VALID,132,VALID,0,
2015-01-03, 01:21:04,VALID,919.086,VALID,0,VALID,95.1097,VALID,0.107441,VALID,20.0733,VALID,132,VALID,0,
2015-01-03, 01:22:04,VALID,919.09,VALID,0,VALID,95.1402,VALID,0.107441,VALID,20.0538,VALID,132,VALID,0,
2015-01-03, 01:23:04,VALID,919.091,VALID,0,VALID,95.1631,VALID,0.107441,VALID,20.0343,VALID,123,VALID,0,
2015-01-03, 01:24:04,VALID,919.066,VALID,0,VALID,95.1555,VALID,0.107441,VALID,19.9938,VALID,123,VALID,0,
2015-01-03, 01:25:04,VALID,919.059,VALID,0,VALID,95.1707,VALID,0,VALID,19.9758,VALID,123,VALID,0,
2015-01-03, 01:26:04,VALID,919.056,VALID,0,VALID,95.186,VALID,0,VALID,19.9563,VALID,123,VALID,0,
2015-01-03, 01:27:04,VALID,919.033,VALID,0,VALID,95.2241,VALID,0,VALID,19.9578,VALID,123,VALID,0,
2015-01-03, 01:28:04,VALID,919.027,VALID,0,VALID,95.2622,VALID,0,VALID,19.9773,VALID,123,VALID,0,
2015-01-03, 01:29:04,VALID,919,VALID,0,VALID,95.2698,VALID,0,VALID,19.9383,VALID,123,VALID,0,
2015-01-03, 01:30:04,VALID,918.988,VALID,0,VALID,95.2851,VALID,0,VALID,19.9173,VALID,123,VALID,0,
2015-01-03, 01:31:04,VALID,918.978,VALID,0,VALID,95.3232,VALID,0,VALID,19.9188,VALID,123,VALID,0,
2015-01-03, 01:32:04,VALID,918.922,VALID,0,VALID,95.3308,VALID,0,VALID,19.8798,VALID,123,VALID,0,
2015-01-03, 01:33:04,VALID,918.902,VALID,0,VALID,95.3537,VALID,0,VALID,19.8198,VALID,122,VALID,0,
2015-01-03, 01:34:04,VALID,918.869,VALID,0,VALID,95.4528,VALID,0,VALID,19.8213,VALID,115,VALID,0,
2015-01-03, 01:35:04,VALID,918.854,VALID,0,VALID,95.5367,VALID,0,VALID,19.8018,VALID,115,VALID,0,
2015-01-03, 01:36:04,VALID,918.873,VALID,0,VALID,95.6053,VALID,0,VALID,19.7613,VALID,115,VALID,0,
2015-01-03, 01:37:04,VALID,918.853,VALID,0,VALID,95.6891,VALID,0,VALID,19.7223,VALID,115,VALID,0,
2015-01-03, 01:38:04,VALID,918.862,VALID,0,VALID,95.7425,VALID,0,VALID,19.7028,VALID,115,VALID,0,
2015-01-03, 01:39:04,VALID,918.851,VALID,0,VALID,95.7654,VALID,0,VALID,19.6833,VALID,115,VALID,0,
2015-01-03, 01:40:04,VALID,918.852,VALID,0,VALID,95.9102,VALID,0,VALID,19.6848,VALID,115,VALID,0,
2015-01-03, 01:41:04,VALID,918.859,VALID,0,VALID,96.0017,VALID,0,VALID,19.6653,VALID,115,VALID,0,
2015-01-03, 01:42:04,VALID,918.855,VALID,0,VALID,96.116,VALID,0,VALID,19.6458,VALID,115,VALID,0,
2015-01-03, 01:43:04,VALID,918.859,VALID,0,VALID,96.1846,VALID,0,VALID,19.6863,VALID,115,VALID,0,
2015-01-03, 01:44:04,VALID,918.807,VALID,0,VALID,96.2761,VALID,0,VALID,19.6458,VALID,115,VALID,0,
2015-01-03, 01:45:04,VALID,918.793,VALID,0,VALID,96.3142,VALID,0,VALID,19.6248,VALID,115,VALID,0,
2015-01-03, 01:46:04,VALID,918.77,VALID,0,VALID,96.2609,VALID,0,VALID,19.6068,VALID,115,VALID,0,
2015-01-03, 01:47:04,VALID,918.693,VALID,0,VALID,96.2533,VALID,0,VALID,19.5483,VALID,115,VALID,0,
2015-01-03, 01:48:04,VALID,918.705,VALID,0,VALID,96.299,VALID,0,VALID,19.5093,VALID,115,VALID,0,
2015-01-03, 01:49:04,VALID,918.706,VALID,0,VALID,96.3752,VALID,0,VALID,19.4703,VALID,115,VALID,0,
2015-01-03, 01:50:04,VALID,918.662,VALID,0,VALID,96.4667,VALID,0,VALID,19.4313,VALID,115,VALID,0,
2015-01-03, 01:51:04,VALID,918.681,VALID,0,VALID,96.5582,VALID,0,VALID,19.3923,VALID,115,VALID,0,
2015-01-03, 01:52:04,VALID,918.697,VALID,0,VALID,96.6649,VALID,0,VALID,19.3728,VALID,115,VALID,0,
2015-01-03, 01:53:04,VALID,918.691,VALID,0,VALID,96.703,VALID,0,VALID,19.3338,VALID,115,VALID,0,
2015-01-03, 01:54:04,VALID,918.685,VALID,0,VALID,96.7945,VALID,0,VALID,19.3143,VALID,115,VALID,0,
2015-01-03, 01:55:04,VALID,918.69,VALID,0,VALID,96.8936,VALID,0,VALID,19.3143,VALID,115,VALID,0,
2015-01-03, 01:56:04,VALID,918.706,VALID,0,VALID,96.947,VALID,0,VALID,19.2738,VALID,115,VALID,0,
2015-01-03, 01:57:04,VALID,918.678,VALID,0,VALID,97.0156,VALID,0,VALID,19.2558,VALID,115,VALID,0,
2015-01-03, 01:58:04,VALID,918.699,VALID,0,VALID,97.0918,VALID,0,VALID,19.2558,VALID,115,VALID,0,
2015-01-03, 01:59:04,VALID,918.693,VALID,0,VALID,97.1452,VALID,0,VALID,19.2363,VALID,115,VALID,0,
2015-01-03, 02:00:04,VALID,918.653,VALID,0,VALID,97.1604,VALID,0,VALID,19.2168,VALID,115,VALID,0,
2015-01-03, 02:01:04,VALID,918.619,VALID,0,VALID,97.2062,VALID,0,VALID,19.1973,VALID,115,VALID,0,
2015-01-03, 02:02:04,VALID,918.61,VALID,0,VALID,97.2214,VALID,0,VALID,19.1973,VALID,115,VALID,0,
2015-01-03, 02:03:04,VALID,918.626,VALID,0,VALID,97.229,VALID,0,VALID,19.1778,VALID,115,VALID,0,
2015-01-03, 02:04:04,VALID,918.57,VALID,0,VALID,97.2138,VALID,0,VALID,19.1583,VALID,115,VALID,0,
2015-01-03, 02:05:04,VALID,918.581,VALID,0,VALID,97.229,VALID,0,VALID,19.1583,VALID,115,VALID,0,
2015-01-03, 02:06:04,VALID,918.569,VALID,0,VALID,97.1681,VALID,0,VALID,19.1193,VALID,115,VALID,0,
2015-01-03, 02:07:04,VALID,918.544,VALID,0,VALID,97.1376,VALID,0,VALID,19.0803,VALID,115,VALID,0,
2015-01-03, 02:08:04,VALID,918.499,VALID,0,VALID,97.1071,VALID,0,VALID,19.0413,VALID,115,VALID,0,
2015-01-03, 02:09:04,VALID,918.499,VALID,0,VALID,97.0918,VALID,0,VALID,19.0023,VALID,115,VALID,0,
2015-01-03, 02:10:04,VALID,918.481,VALID,0,VALID,97.0766,VALID,0,VALID,19.0023,VALID,115,VALID,0,
2015-01-03, 02:11:04,VALID,918.484,VALID,0,VALID,97.0994,VALID,0,VALID,18.9828,VALID,115,VALID,0,
2015-01-03, 02:12:04,VALID,918.443,VALID,0,VALID,97.0842,VALID,0,VALID,18.9828,VALID,115,VALID,0,
2015-01-03, 02:13:04,VALID,918.471,VALID,0,VALID,97.0537,VALID,0,VALID,18.9828,VALID,115,VALID,0,
2015-01-03, 02:14:04,VALID,918.454,VALID,0,VALID,97.0461,VALID,0,VALID,18.9828,VALID,115,VALID,0,
2015-01-03, 02:15:04,VALID,918.442,VALID,0,VALID,97.0537,VALID,0,VALID,18.9828,VALID,115,VALID,0,
2015-01-03, 02:16:04,VALID,918.432,VALID,0,VALID,97.0461,VALID,0,VALID,19.0427,VALID,115,VALID,0,
2015-01-03, 02:17:04,VALID,918.454,VALID,0,VALID,97.0003,VALID,0,VALID,19.0023,VALID,115,VALID,0,
2015-01-03, 02:18:04,VALID,918.436,VALID,0,VALID,96.9394,VALID,0,VALID,19.0413,VALID,115,VALID,0,
2015-01-03, 02:19:04,VALID,918.46,VALID,0,VALID,96.886,VALID,0,VALID,19.0413,VALID,115,VALID,0,
2015-01-03, 02:20:04,VALID,918.45,VALID,0,VALID,96.8174,VALID,0,VALID,19.0608,VALID,115,VALID,0,
2015-01-03, 02:21:04,VALID,918.48,VALID,0,VALID,96.7564,VALID,0,VALID,19.0803,VALID,115,VALID,0,
2015-01-03, 02:22:04,VALID,918.469,VALID,0,VALID,96.703,VALID,0,VALID,19.0803,VALID,115,VALID,0,
2015-01-03, 02:23:04,VALID,918.49,VALID,0,VALID,96.6344,VALID,0,VALID,19.0803,VALID,115,VALID,0,
2015-01-03, 02:24:04,VALID,918.489,VALID,0,VALID,96.5582,VALID,0,VALID,19.0593,VALID,115,VALID,0,
2015-01-03, 02:25:04,VALID,918.472,VALID,0,VALID,96.4819,VALID,0,VALID,19.0608,VALID,115,VALID,0,
2015-01-03, 02:26:04,VALID,918.465,VALID,0,VALID,96.421,VALID,0,VALID,19.0608,VALID,115,VALID,0,
2015-01-03, 02:27:04,VALID,918.481,VALID,0,VALID,96.3829,VALID,0,VALID,19.0218,VALID,115,VALID,0,
2015-01-03, 02:28:04,VALID,918.448,VALID,0,VALID,96.3447,VALID,0,VALID,19.0218,VALID,115,VALID,0,
2015-01-03, 02:29:04,VALID,918.449,VALID,0,VALID,96.3371,VALID,0,VALID,19.0023,VALID,115,VALID,0,
2015-01-03, 02:30:04,VALID,918.456,VALID,0,VALID,96.36,VALID,0,VALID,18.9828,VALID,115,VALID,0,
2015-01-03, 02:31:04,VALID,918.422,VALID,0,VALID,96.4057,VALID,0,VALID,18.9828,VALID,115,VALID,0,
2015-01-03, 02:32:04,VALID,918.404,VALID,0,VALID,96.4591,VALID,0,VALID,18.9633,VALID,115,VALID,0,
2015-01-03, 02:33:04,VALID,918.406,VALID,0,VALID,96.5506,VALID,0,VALID,18.9438,VALID,149,VALID,0,
2015-01-03, 02:34:04,VALID,918.36,VALID,0,VALID,96.6649,VALID,0,VALID,18.9243,VALID,162,VALID,0,
2015-01-03, 02:35:04,VALID,918.365,VALID,0,VALID,96.7564,VALID,0,VALID,18.9243,VALID,169,VALID,0,
2015-01-03, 02:36:04,VALID,918.355,VALID,0,VALID,96.9241,VALID,0,VALID,18.9243,VALID,170,VALID,0,
2015-01-03, 02:37:04,VALID,918.363,VALID,0,VALID,97.0232,VALID,0,VALID,18.8853,VALID,170,VALID,0,
2015-01-03, 02:38:04,VALID,918.317,VALID,0,VALID,97.1376,VALID,0,VALID,18.8853,VALID,170,VALID,0,
2015-01-03, 02:39:04,VALID,918.304,VALID,0,VALID,97.229,VALID,0,VALID,18.9062,VALID,170,VALID,0,
2015-01-03, 02:40:04,VALID,918.321,VALID,0,VALID,97.3053,VALID,0,VALID,18.9048,VALID,170,VALID,0,
2015-01-03, 02:41:04,VALID,918.323,VALID,0,VALID,97.3663,VALID,0,VALID,18.8853,VALID,170,VALID,0,
2015-01-03, 02:42:04,VALID,918.298,VALID,0,VALID,97.4196,VALID,0,VALID,18.9048,VALID,170,VALID,0,
2015-01-03, 02:43:04,VALID,918.274,VALID,0,VALID,97.4654,VALID,0,VALID,18.9048,VALID,170,VALID,0,
2015-01-03, 02:44:04,VALID,918.271,VALID,0,VALID,97.4882,VALID,0,VALID,18.8658,VALID,170,VALID,0,
2015-01-03, 02:45:04,VALID,918.23,VALID,0,VALID,97.5111,VALID,0,VALID,18.8268,VALID,170,VALID,0,
2015-01-03, 02:46:04,VALID,918.256,VALID,0,VALID,97.5111,VALID,0,VALID,18.7878,VALID,170,VALID,0,
2015-01-03, 02:47:04,VALID,918.245,VALID,0,VALID,97.5111,VALID,0,VALID,18.7892,VALID,170,VALID,0,
2015-01-03, 02:48:04,VALID,918.259,VALID,0,VALID,97.5416,VALID,0,VALID,18.7293,VALID,170,VALID,0,
2015-01-03, 02:49:04,VALID,918.254,VALID,0,VALID,97.5264,VALID,0,VALID,18.6903,VALID,170,VALID,0,
2015-01-03, 02:50:04,VALID,918.265,VALID,0,VALID,97.534,VALID,0,VALID,18.6528,VALID,170,VALID,0,
2015-01-03, 02:51:04,VALID,918.282,VALID,0,VALID,97.5264,VALID,0,VALID,18.6319,VALID,170,VALID,0,
2015-01-03, 02:52:04,VALID,918.225,VALID,0,VALID,97.5569,VALID,0,VALID,18.6124,VALID,170,VALID,0,
2015-01-03, 02:53:04,VALID,918.234,VALID,0,VALID,97.5721,VALID,0,VALID,18.6124,VALID,170,VALID,0,
2015-01-03, 02:54:04,VALID,918.215,VALID,0,VALID,97.5873,VALID,0,VALID,18.6319,VALID,170,VALID,0,
2015-01-03, 02:55:04,VALID,918.191,VALID,0,VALID,97.6331,VALID,0,VALID,18.6319,VALID,170,VALID,0,
2015-01-03, 02:56:04,VALID,918.168,VALID,0,VALID,97.6636,VALID,0,VALID,18.6319,VALID,170,VALID,0,
2015-01-03, 02:57:04,VALID,918.182,VALID,0,VALID,97.7017,VALID,0,VALID,18.6319,VALID,170,VALID,0,
2015-01-03, 02:58:04,VALID,918.15,VALID,0,VALID,97.7017,VALID,0,VALID,18.6708,VALID,170,VALID,0,
2015-01-03, 02:59:04,VALID,918.158,VALID,0,VALID,97.7398,VALID,0,VALID,18.6903,VALID,170,VALID,0,
2015-01-03, 03:00:04,VALID,918.149,VALID,0,VALID,97.7551,VALID,0,VALID,18.7503,VALID,170,VALID,0,
2015-01-03, 03:01:04,VALID,918.16,VALID,0,VALID,97.7703,VALID,0,VALID,18.7878,VALID,170,VALID,0,
2015-01-03, 03:02:04,VALID,918.144,VALID,0,VALID,97.8008,VALID,0,VALID,18.8268,VALID,170,VALID,0,
2015-01-03, 03:03:04,VALID,918.166,VALID,0,VALID,97.816,VALID,0,VALID,18.8268,VALID,170,VALID,0,
2015-01-03, 03:04:04,VALID,918.166,VALID,0,VALID,97.8313,VALID,0,VALID,18.8463,VALID,170,VALID,0,
2015-01-03, 03:05:04,VALID,918.174,VALID,0,VALID,97.8465,VALID,0,VALID,18.8268,VALID,170,VALID,0,
2015-01-03, 03:06:04,VALID,918.173,VALID,0,VALID,97.8389,VALID,0,VALID,18.8073,VALID,170,VALID,0,
2015-01-03, 03:07:04,VALID,918.11,VALID,0,VALID,97.8313,VALID,0,VALID,18.7878,VALID,170,VALID,0,
2015-01-03, 03:08:04,VALID,918.103,VALID,0,VALID,97.8389,VALID,0,VALID,18.7878,VALID,170,VALID,0,
2015-01-03, 03:09:04,VALID,918.03,VALID,0,VALID,97.8237,VALID,0,VALID,18.7878,VALID,170,VALID,0,
2015-01-03, 03:10:04,VALID,918.027,VALID,0,VALID,97.8237,VALID,0,VALID,18.7683,VALID,170,VALID,0,
2015-01-03, 03:11:04,VALID,918.036,VALID,0,VALID,97.8237,VALID,0,VALID,18.7878,VALID,170,VALID,0,
2015-01-03, 03:12:04,VALID,917.995,VALID,0,VALID,97.8389,VALID,0,VALID,18.7683,VALID,170,VALID,0,
2015-01-03, 03:13:04,VALID,918.005,VALID,0,VALID,97.8313,VALID,0,VALID,18.7683,VALID,170,VALID,0,
2015-01-03, 03:14:04,VALID,917.948,VALID,0,VALID,97.8465,VALID,0,VALID,18.7683,VALID,170,VALID,0,
2015-01-03, 03:15:04,VALID,917.957,VALID,0,VALID,97.8542,VALID,0,VALID,18.7892,VALID,170,VALID,0,
2015-01-03, 03:16:04,VALID,917.926,VALID,0,VALID,97.8313,VALID,0,VALID,18.7878,VALID,170,VALID,0,
2015-01-03, 03:17:04,VALID,917.945,VALID,0,VALID,97.8465,VALID,0,VALID,18.8282,VALID,170,VALID,0,
2015-01-03, 03:18:04,VALID,917.913,VALID,0,VALID,97.8465,VALID,0,VALID,18.8463,VALID,170,VALID,0,
2015-01-03, 03:19:04,VALID,917.875,VALID,0,VALID,97.8694,VALID,0,VALID,18.8658,VALID,170,VALID,0,
2015-01-03, 03:20:04,VALID,917.846,VALID,0,VALID,97.8847,VALID,0,VALID,18.8672,VALID,170,VALID,0,
2015-01-03, 03:21:04,VALID,917.872,VALID,0,VALID,97.8999,VALID,0,VALID,18.8268,VALID,169,VALID,0,
2015-01-03, 03:22:04,VALID,917.86,VALID,0,VALID,97.8999,VALID,0,VALID,18.7878,VALID,169,VALID,0,
2015-01-03, 03:23:04,VALID,917.829,VALID,0,VALID,97.8999,VALID,0,VALID,18.7878,VALID,169,VALID,0,
2015-01-03, 03:24:04,VALID,917.828,VALID,0,VALID,97.9075,VALID,0,VALID,18.8087,VALID,169,VALID,0,
2015-01-03, 03:25:04,VALID,917.826,VALID,0,VALID,97.9075,VALID,0,VALID,18.8073,VALID,169,VALID,0,
2015-01-03, 03:26:04,VALID,917.806,VALID,0,VALID,97.9075,VALID,0,VALID,18.8059,VALID,169,VALID,0,
2015-01-03, 03:27:04,VALID,917.797,VALID,0,VALID,97.9228,VALID,0,VALID,18.8463,VALID,169,VALID,0,
2015-01-03, 03:28:04,VALID,917.828,VALID,0,VALID,97.9228,VALID,0,VALID,18.8463,VALID,169,VALID,0,
2015-01-03, 03:29:04,VALID,917.829,VALID,0,VALID,97.9456,VALID,0,VALID,18.8268,VALID,169,VALID,0,
2015-01-03, 03:30:04,VALID,917.819,VALID,0,VALID,97.9228,VALID,0,VALID,18.8449,VALID,169,VALID,0,
2015-01-03, 03:31:04,VALID,917.815,VALID,0,VALID,97.938,VALID,0,VALID,18.8853,VALID,169,VALID,0,
2015-01-03, 03:32:04,VALID,917.792,VALID,0,VALID,97.9456,VALID,0,VALID,18.8658,VALID,169,VALID,0,
2015-01-03, 03:33:04,VALID,917.791,VALID,0,VALID,97.9533,VALID,0,VALID,18.8853,VALID,169,VALID,0,
2015-01-03, 03:34:04,VALID,917.8,VALID,0,VALID,97.9456,VALID,0,VALID,18.8644,VALID,169,VALID,0,
2015-01-03, 03:35:04,VALID,917.79,VALID,0,VALID,97.9456,VALID,0,VALID,18.8644,VALID,169,VALID,0,
2015-01-03, 03:36:04,VALID,917.789,VALID,0,VALID,97.9609,VALID,0,VALID,18.8463,VALID,165,VALID,0,
2015-01-03, 03:37:04,VALID,917.787,VALID,0,VALID,97.9609,VALID,0,VALID,18.8073,VALID,157,VALID,0,
2015-01-03, 03:38:04,VALID,917.791,VALID,0,VALID,97.9533,VALID,0.107441,VALID,18.7474,VALID,153,VALID,0,
2015-01-03, 03:39:04,VALID,917.805,VALID,0,VALID,97.9533,VALID,0,VALID,18.7084,VALID,151,VALID,0,
2015-01-03, 03:40:04,VALID,917.814,VALID,0,VALID,97.9304,VALID,0,VALID,18.6903,VALID,160,VALID,0,
2015-01-03, 03:41:04,VALID,917.777,VALID,0,VALID,97.9533,VALID,0,VALID,18.6918,VALID,160,VALID,0,
2015-01-03, 03:42:04,VALID,917.79,VALID,0,VALID,97.9304,VALID,0,VALID,18.6708,VALID,156,VALID,0,
2015-01-03, 03:43:04,VALID,917.733,VALID,0,VALID,97.9456,VALID,0,VALID,18.6918,VALID,162,VALID,0,
2015-01-03, 03:44:04,VALID,917.736,VALID,0,VALID,97.9838,VALID,0,VALID,18.6918,VALID,123,VALID,0,
2015-01-03, 03:45:04,VALID,917.731,VALID,0,VALID,97.9685,VALID,0,VALID,18.6513,VALID,139,VALID,0,
2015-01-03, 03:46:04,VALID,917.71,VALID,0,VALID,97.9838,VALID,0,VALID,18.6513,VALID,141,VALID,0,
2015-01-03, 03:47:04,VALID,917.715,VALID,0,VALID,97.9685,VALID,0,VALID,18.6708,VALID,138,VALID,0,
2015-01-03, 03:48:04,VALID,917.718,VALID,0,VALID,97.9838,VALID,0,VALID,18.7098,VALID,157,VALID,1.14141,
2015-01-03, 03:49:04,VALID,917.712,VALID,0,VALID,97.9838,VALID,0,VALID,18.7503,VALID,135,VALID,1.53789,
2015-01-03, 03:50:04,VALID,917.671,VALID,0,VALID,97.9914,VALID,0,VALID,18.7488,VALID,137,VALID,1.38125,
2015-01-03, 03:51:04,VALID,917.691,VALID,0,VALID,98.0143,VALID,0,VALID,18.7488,VALID,132,VALID,1.54258,
2015-01-03, 03:52:04,VALID,917.663,VALID,0,VALID,98.0295,VALID,0,VALID,18.7683,VALID,126,VALID,1.58633,
2015-01-03, 03:53:04,VALID,917.658,VALID,0,VALID,98.0295,VALID,0,VALID,18.8087,VALID,121,VALID,1.96875,
2015-01-03, 03:54:04,VALID,917.666,VALID,0,VALID,98.0295,VALID,0,VALID,18.8268,VALID,122,VALID,1.75,
2015-01-03, 03:55:04,VALID,917.636,VALID,0,VALID,98.0143,VALID,0,VALID,18.8268,VALID,138,VALID,1.16602,
2015-01-03, 03:56:04,VALID,917.636,VALID,0,VALID,98.0371,VALID,0,VALID,18.8463,VALID,139,VALID,0.973047,